GW2134 Weather Reports


Display with metric or nautical units.
time (UTC)temp
F
wind
direction
speed
MPH
gust
MPH
rain 1hr
in
rain 24hr
in
rain mn
in
humidity
%
barometer
mb
20260510090052 59 0 0.0 4.0 0.00 0.00 0.00 76 1016.8
20260510084610 60 0 1.0 4.0 0.00 0.00 0.00 73 1016.6
20260510083056 60 0 1.0 4.0 0.00 0.00 0.00 73 1016.6
20260510081604 60 0 0.0 3.0 0.00 0.00 0.00 73 1016.4
20260510080100 60 303 0.0 4.0 0.00 0.00 0.00 75 1016.6
20260510074604 59 128 0.0 4.0 0.00 0.00 0.00 75 1016.6
20260510073058 58 0 0.0 3.0 0.00 0.00 0.00 76 1016.6
20260510071556 58 63 0.0 2.0 0.00 0.00 0.00 80 1016.8
20260510070105 57 0 0.0 2.0 0.00 0.00 0.00 82 1016.6
20260510064556 57 0 0.0 3.0 0.00 0.00 0.00 82 1016.6
20260510063053 57 0 0.0 1.0 0.00 0.00 0.00 83 1016.6
20260510061556 56 309 0.0 3.0 0.00 0.00 0.00 82 1016.6
20260510060059 56 0 0.0 3.0 0.00 0.00 0.00 81 1016.5
20260510054555 57 0 0.0 2.0 0.00 0.00 0.00 80 1016.4
20260510053055 57 0 0.0 3.0 0.00 0.00 0.00 78 1016.3
20260510051606 57 0 0.0 2.0 0.00 0.00 0.00 76 1016.2
20260510050106 57 0 0.0 6.0 0.00 0.00 0.00 74 1016.0
20260510044558 56 355 2.0 5.0 0.00 0.00 0.00 76 1016.2
20260510043052 57 329 0.0 2.0 0.00 0.00 0.00 78 1016.3
20260510041600 57 0 0.0 4.0 0.00 0.00 0.00 80 1016.4
20260510040104 58 0 0.0 2.0 0.00 0.00 0.00 80 1016.5
20260510034550 58 0 0.0 0.0 0.00 0.00 0.00 80 1016.3
20260510033100 58 0 0.0 1.0 0.00 0.00 0.00 81 1016.5
20260510031552 58 0 0.0 1.0 0.00 0.00 0.00 81 1016.5
20260510024554 57 0 1.0 5.0 0.00 0.00 0.00 80 1017.1
20260510023056 57 0 0.0 4.0 0.00 0.00 0.00 79 1017.3
20260510021646 57 335 1.0 5.0 0.00 0.00 0.00 79 1017.4
20260510020058 57 249 0.0 2.0 0.00 0.00 0.00 78 1017.7
20260510014600 57 83 0.0 0.0 0.00 0.00 0.00 77 1017.6
20260510013100 57 0 0.0 2.0 0.00 0.00 0.00 76 1017.7
20260510011552 58 0 0.0 2.0 0.00 0.00 0.00 75 1017.7
20260510010059 58 0 0.0 2.0 0.00 0.00 0.00 74 1017.8
20260510004555 58 330 3.0 5.0 0.00 0.00 0.00 74 1017.6
20260510003100 58 315 3.0 5.0 0.00 0.00 0.00 73 1018.2
20260510001550 58 37 2.0 4.0 0.00 0.00 0.00 74 1018.4
20260510000051 58 27 1.0 3.0 0.00 0.00 0.00 74 1018.6
20260509234553 58 0 0.0 2.0 0.00 0.00 0.00 74 1018.5
20260509233052 58 19 1.0 3.0 0.00 0.00 0.00 74 1018.5
20260509231558 58 0 0.0 0.0 0.00 0.00 0.00 74 1018.5
20260509230053 58 0 0.0 1.0 0.00 0.00 0.00 74 1018.3
20260509224552 58 0 0.0 3.0 0.00 0.00 0.00 74 1018.4
20260509223054 58 26 0.0 2.0 0.00 0.00 0.00 75 1018.4
20260509221556 58 26 2.0 4.0 0.00 0.00 0.00 75 1018.5
20260509220053 58 348 1.0 4.0 0.00 0.00 0.00 75 1018.6
20260509214558 59 20 1.0 4.0 0.00 0.00 0.00 74 1018.6
20260509213105 59 26 1.0 2.0 0.00 0.00 0.00 74 1018.6
20260509211602 59 0 0.0 1.0 0.00 0.00 0.00 74 1018.6
20260509210054 59 0 0.0 4.0 0.00 0.00 0.00 73 1018.6
20260509204553 59 28 1.0 4.0 0.00 0.00 0.00 73 1018.8
20260509203101 60 0 1.0 3.0 0.00 0.00 0.00 72 1018.9
20260509201600 60 335 2.0 4.0 0.00 0.00 0.00 72 1018.9
20260509200055 60 0 0.0 3.0 0.00 0.00 0.00 71 1018.8
20260509194602 60 340 2.0 3.0 0.00 0.00 0.00 71 1018.7
20260509193056 60 336 3.0 5.0 0.00 0.00 0.00 71 1018.6
20260509191609 60 0 1.0 5.0 0.00 0.00 0.00 71 1018.4
20260509190054 61 298 3.0 6.0 0.00 0.00 0.00 69 1018.1
20260509184601 62 360 2.0 4.0 0.00 0.00 0.00 67 1018.0
20260509183055 64 0 0.0 3.0 0.00 0.00 0.00 64 1017.9
20260509181601 65 0 0.0 0.0 0.00 0.00 0.00 61 1017.9
20260509180105 66 355 1.0 4.0 0.00 0.00 0.00 60 1017.9
20260509174557 67 0 1.0 3.0 0.00 0.00 0.00 58 1017.8
20260509173105 67 0 0.0 2.0 0.00 0.00 0.00 58 1017.8
20260509171551 68 36 0.0 5.0 0.00 0.00 0.00 57 1017.6
20260509170057 68 355 1.0 3.0 0.00 0.00 0.00 57 1017.6
20260509164554 69 350 0.0 3.0 0.00 0.00 0.00 54 1017.7
20260509163056 71 123 1.0 4.0 0.00 0.00 0.00 52 1017.7
20260509161603 72 115 1.0 4.0 0.00 0.00 0.00 47 1017.9
20260509160101 72 133 1.0 5.0 0.00 0.00 0.00 48 1017.9
20260509154552 72 74 1.0 8.0 0.00 0.00 0.00 46 1018.0
20260509153058 72 192 1.0 5.0 0.00 0.00 0.00 45 1018.0
20260509151555 73 130 1.0 4.0 0.00 0.00 0.00 44 1018.2
20260509150052 72 335 0.0 7.0 0.00 0.00 0.00 45 1018.1
20260509144554 72 299 1.0 7.0 0.00 0.00 0.00 47 1018.3
20260509143058 71 74 0.0 2.0 0.00 0.00 0.00 47 1018.6
20260509141550 71 115 0.0 6.0 0.00 0.00 0.00 47 1018.8
20260509140105 71 119 0.0 4.0 0.00 0.00 0.00 45 1018.9
20260509134556 72 105 1.0 7.0 0.00 0.00 0.00 46 1019.0
20260509133054 70 283 1.0 7.0 0.00 0.00 0.00 47 1019.1
20260509131556 71 0 0.0 4.0 0.00 0.00 0.00 44 1019.1
20260509130056 71 0 1.0 4.0 0.00 0.00 0.00 43 1019.1
20260509124553 73 118 2.0 8.0 0.00 0.00 0.00 41 1019.1
20260509123057 74 78 1.0 5.0 0.00 0.00 0.00 39 1019.2
20260509121551 73 63 0.0 7.0 0.00 0.00 0.00 39 1019.4
20260509120056 73 47 0.0 8.0 0.00 0.00 0.00 37 1019.4
20260509114552 72 144 4.0 8.0 0.00 0.00 0.00 37 1019.5
20260509113055 71 140 2.0 10.0 0.00 0.00 0.00 40 1019.7
20260509111558 71 138 2.0 8.0 0.00 0.00 0.00 40 1019.8
20260509110053 71 113 2.0 8.0 0.00 0.00 0.00 38 1019.8
20260509104555 71 143 2.0 9.0 0.00 0.00 0.00 39 1020.0
20260509103104 70 128 2.0 9.0 0.00 0.00 0.00 40 1020.1
20260509101608 69 296 3.0 10.0 0.00 0.00 0.00 40 1020.2
20260509100055 68 59 2.0 9.0 0.00 0.00 0.00 41 1020.2
20260509094600 68 100 1.0 9.0 0.00 0.00 0.00 43 1020.3
20260509093052 67 128 4.0 9.0 0.00 0.00 0.00 46 1020.3
20260509091558 67 0 1.0 7.0 0.00 0.00 0.00 46 1020.3